Content
SEND FEEDBACK

Daily
Averages
Monthly
Summary
Canada

VANCOUVER, BRITISH COLUMBIA


Home > North America > Canada > British Columbia
Elevation: 7 feet     Latitude: 49 11N     Longitude: 123 10W

WEATHER
 
SELECT A DAY
Number of Records: 249,704;   Date Range: 5/15/97 - 8/31/14
 
SHARE

PRINT THIS DATA

[ ← Previous Day ]
WEATHER ALMANAC - JULY 16, 2013
[ Next Day → ]
[ °C ]   °F
Weather ElementAverageHighLow
Temperature67.2 °F73.4 °F (3:55 pm)62.6 °F (2:35 am)
Dewpoint55.7 °F59 °F (8:55 am)50 °F (4:55 pm)
Humidity67.6 %83 % (8:55 am)44 % (4:55 pm)
Barometer29.88 in29.92 in (1:15 am)29.81 in (8:35 pm)
Wind Speed4 mph12.7 mph (3:55 am)
Wind Gust17.3 mph (7:35 am)
Weather ElementAverage
Visibility9.4 mi
Wind DirectionS (175.7 °)

Weather ElementTotal
Precipitation---
Cooling Degree Days3 (Base 65)
Growing Degree Days18 (Base 50)
Averaged from 67 records on July 16, 2013
WEATHER CONDITIONS BREAKOUT
WIND DIRECTION BREAKOUT
WEATHER BY HOUR - JULY 16, 2013
[ °C ]   °F
Local TimeTemperatureDewpointHumidityBarometerVisibilityWind DirectionWind SpeedGust SpeedPrecipitationEventsConditions
12:35 AM66.2 °F55.4 °F68 %29.91 in10.0 miNNW (330°)5.8 mphRainLight Rain
12:55 AM64.4 °F55.4 °F73 %29.91 in10.0 miCalmClear
1:15 AM64.4 °F55.4 °F73 %29.92 in10.0 miCalmClear
1:35 AM64.4 °F55.4 °F73 %29.92 in9.0 miCalmClear
1:55 AM64.4 °F57.2 °F77 %29.92 in10.0 miNorth (10°)3.5 mphClear
2:15 AM64.4 °F57.2 °F77 %29.91 in10.0 miCalmClear
2:35 AM62.6 °F57.2 °F82 %29.91 in10.0 miCalmClear
2:55 AM62.6 °F57.2 °F82 %29.91 in10.0 miCalmClear
3:15 AM64.4 °F55.4 °F73 %29.91 in10.0 miCalmClear
3:35 AM64.4 °F55.4 °F73 %29.91 in10.0 miNorth (350°)9.2 mphClear
3:55 AM64.4 °F57.2 °F77 %29.91 in10.0 miNorth (350°)12.7 mphClear
4:15 AM64.4 °F57.2 °F77 %29.91 in10.0 miNNW (340°)9.2 mphClear
4:35 AM62.6 °F57.2 °F82 %29.91 in10.0 miNNW (340°)9.2 mphClear
4:55 AM62.6 °F57.2 °F82 %29.91 in10.0 miNNW (340°)9.2 mphClear
5:15 AM62.6 °F57.2 °F82 %29.91 in10.0 miNNW (340°)6.9 mphClear
5:35 AM62.6 °F57.2 °F82 %29.91 in9.0 miNorth (350°)8.1 mphClear
5:55 AM62.6 °F57.2 °F82 %29.91 in8.0 miNNW (340°)4.6 mphClear
6:15 AM62.6 °F57.2 °F82 %29.92 in9.0 miCalmClear
6:35 AM62.6 °F57.2 °F82 %29.92 in9.0 miCalmClear
6:55 AM64.4 °F57.2 °F77 %29.92 in9.0 miNNW (340°)6.9 mphClear
7:15 AM64.4 °F57.2 °F77 %29.92 in9.0 miNorth (350°)11.5 mphClear
7:35 AM64.4 °F57.2 °F77 %29.92 in8.0 miNorth (350°)9.2 mph17.3 mphClear
7:55 AM64.4 °F57.2 °F77 %29.92 in9.0 miNorth (350°)10.4 mph16.1 mphClear
8:15 AM64.4 °F57.2 °F77 %29.92 in9.0 miNNW (340°)6.9 mphClear
8:55 AM64.4 °F59.0 °F83 %29.92 in7.0 miNNW (330°)9.2 mphClear
9:15 AM64.4 °F57.2 °F77 %29.92 in8.0 miNNW (330°)8.1 mphClear
9:35 AM66.2 °F57.2 °F73 %29.91 in8.0 miNNW (330°)9.2 mphClear
9:55 AM66.2 °F59.0 °F78 %29.91 in8.0 miNNW (330°)8.1 mphClear
10:15 AM66.2 °F57.2 °F73 %29.90 in8.0 miNNW (330°)6.9 mphClear
10:35 AM66.2 °F59.0 °F78 %29.90 in8.0 miNW (310°)5.8 mphClear
10:55 AM66.2 °F57.2 °F73 %29.91 in9.0 miNW (320°)6.9 mphClear
11:15 AM66.2 °F57.2 °F73 %29.90 in9.0 miWNW (300°)4.6 mphClear
11:35 AM68.0 °F59.0 °F73 %29.90 in9.0 miNNW (340°)4.6 mphClear
11:55 AM68.0 °F57.2 °F68 %29.89 in10.0 miNNW (340°)8.1 mphClear
12:15 PM68.0 °F59.0 °F73 %29.89 in9.0 miNNW (340°)6.9 mphClear
12:35 PM68.0 °F59.0 °F73 %29.89 in9.0 miNNW (330°)8.1 mphClear
1:55 PM69.8 °F57.2 °F64 %29.88 in8.0 miNNW (340°)9.2 mphClear
2:15 PM68.0 °F59.0 °F73 %29.87 in9.0 miNW (320°)9.2 mphClear
2:35 PM69.8 °F57.2 °F64 %29.87 in10.0 miNNW (340°)5.8 mphClear
2:55 PM71.6 °F55.4 °F57 %29.86 in10.0 miNNW (340°)8.1 mphClear
3:15 PM69.8 °F55.4 °F60 %29.87 in10.0 miNNW (340°)3.5 mphClear
3:35 PM71.6 °F53.6 °F53 %29.86 in10.0 miNNW (340°)5.8 mphClear
3:55 PM73.4 °F53.6 °F50 %29.85 in10.0 miNW (310°)4.6 mphClear
4:15 PM73.4 °F53.6 °F50 %29.84 in10.0 miNNW (330°)4.6 mphClear
4:35 PM73.4 °F51.8 °F47 %29.84 in10.0 miNorth (10°)3.5 mphClear
4:55 PM73.4 °F50.0 °F44 %29.84 in10.0 miNorth (350°)5.8 mphClear
5:15 PM73.4 °F53.6 °F50 %29.83 in10.0 miCalmClear
5:35 PM73.4 °F57.2 °F57 %29.83 in10.0 miCalmClear
5:55 PM73.4 °F53.6 °F50 %29.83 in9.0 miCalmClear
6:15 PM71.6 °F53.6 °F53 %29.82 in10.0 miCalmClear
6:35 PM71.6 °F53.6 °F53 %29.85 in10.0 miCalmClear
6:55 PM71.6 °F53.6 °F53 %29.84 in10.0 miCalmClear
7:15 PM71.6 °F53.6 °F53 %29.84 in10.0 miCalmClear
7:35 PM71.6 °F53.6 °F53 %29.84 in9.0 miCalmClear
7:55 PM69.8 °F55.4 °F60 %29.83 in9.0 miCalmClear
8:15 PM69.8 °F57.2 °F64 %29.82 in9.0 miCalmClear
8:35 PM69.8 °F55.4 °F60 %29.81 in10.0 miCalmClear
8:55 PM68.0 °F53.6 °F60 %29.81 in10.0 miCalmClear
9:15 PM68.0 °F53.6 °F60 %29.82 in10.0 miCalmClear
9:35 PM71.6 °F50.0 °F46 %29.83 in10.0 miCalmClear
9:55 PM68.0 °F51.8 °F56 %29.83 in10.0 miCalmClear
10:15 PM68.0 °F53.6 °F60 %29.83 in10.0 miCalmClear
10:35 PM66.2 °F53.6 °F64 %29.83 in9.0 miCalmClear
10:55 PM66.2 °F53.6 °F64 %29.84 in10.0 miCalmClear
11:15 PM64.4 °F53.6 °F68 %29.84 in10.0 miCalmClear
11:35 PM64.4 °F51.8 °F64 %29.84 in10.0 miCalmClear
11:55 PM64.4 °F50.0 °F59 %29.85 in10.0 miCalmClear
Hourly data recorded from CZBB, located miles away from Vancouver, British Columbia







STORIES FROM OUR PARTNERS